When you browse on this site, cookies collect data to enhance your experience and personalize the content and advertising you see.
Visit our Privacy Policy to learn more. By continuing to use the site, you agree to this use of cookies and data.
  • In Hungary
  • List of Countries
  • For 7 days
  • Water Temperature
  • Weather Map
  • News
  • Weather Widgets
  • user-avatar
    Login

    Hourly Weather Lezhe

    Today, 31 May, Sunday

    Time Temperature Precipitation Wind Pressure Humidity
    00:00 +13°C° 0.1 mm 1 mps 736 mmHg 82%
    01:00 +13°C° 0.1 mm 1 mps 736 mmHg 82%
    02:00 +13°C° 0.2 mm 1 mps 736 mmHg 82%
    03:00 +13°C° 0.2 mm 1 mps 736 mmHg 83%
    04:00 +13°C° 0.2 mm 1 mps 736 mmHg 84%
    05:00 +13°C° 0.7 mm 1 mps 736 mmHg 85%
    06:00 +14°C° 0.7 mm 2 mps 736 mmHg 86%
    07:00 +14°C° 0.7 mm 2 mps 736 mmHg 87%
    08:00 +14°C° 0.3 mm 2 mps 736 mmHg 87%
    09:00 +14°C° 0.3 mm 2 mps 736 mmHg 87%
    10:00 +14°C° 0.3 mm 2 mps 736 mmHg 87%
    11:00 +16°C° 0.3 mm 2 mps 736 mmHg 83%
    12:00 +17°C° 0.3 mm 2 mps 735 mmHg 78%
    13:00 +18°C° 0.3 mm 2 mps 735 mmHg 73%
    14:00 +18°C° 0.7 mm 2 mps 735 mmHg 72%
    15:00 +19°C° 0.7 mm 1 mps 735 mmHg 72%
    16:00 +20°C° 0.7 mm 1 mps 734 mmHg 71%
    17:00 +18°C° 0.5 mm 1 mps 734 mmHg 77%
    18:00 +16°C° 0.5 mm 1 mps 734 mmHg 83%
    19:00 +14°C° 0.5 mm 1 mps 734 mmHg 88%
    20:00 +14°C° 0.6 mm 1 mps 735 mmHg 89%
    21:00 +13°C° 0.6 mm 1 mps 735 mmHg 90%
    22:00 +13°C° 0.6 mm 1 mps 735 mmHg 91%
    23:00 +12°C° 0.7 mm 1 mps 735 mmHg 91%

    Tomorrow, 1 June, Monday

    Time Temperature Precipitation Wind Pressure Humidity
    00:00 +12°C° 0.7 mm 1 mps 735 mmHg 92%
    01:00 +12°C° 0.7 mm 1 mps 735 mmHg 92%
    02:00 +11°C° 0.5 mm 1 mps 735 mmHg 92%
    03:00 +10°C° 0.5 mm 2 mps 734 mmHg 91%
    04:00 +10°C° 0.5 mm 2 mps 734 mmHg 91%
    05:00 +13°C° 0 mm 2 mps 734 mmHg 86%
    06:00 +14°C° 0 mm 2 mps 734 mmHg 82%
    07:00 +16°C° 0 mm 1 mps 734 mmHg 77%
    08:00 +18°C° 0.3 mm 1 mps 734 mmHg 73%
    09:00 +19°C° 0.3 mm 1 mps 735 mmHg 69%
    10:00 +20°C° 0.3 mm 1 mps 735 mmHg 65%
    11:00 +21°C° 0.3 mm 1 mps 734 mmHg 63%
    12:00 +20°C° 0.3 mm 2 mps 734 mmHg 62%
    13:00 +20°C° 0.3 mm 3 mps 734 mmHg 60%
    14:00 +20°C° 0.5 mm 3 mps 734 mmHg 62%
    15:00 +20°C° 0.5 mm 3 mps 734 mmHg 64%
    16:00 +19°C° 0.5 mm 4 mps 734 mmHg 67%
    17:00 +18°C° 0.1 mm 3 mps 734 mmHg 71%
    18:00 +17°C° 0.1 mm 3 mps 734 mmHg 75%
    19:00 +15°C° 0.1 mm 2 mps 734 mmHg 79%
    20:00 +15°C° 0 mm 2 mps 734 mmHg 80%
    21:00 +14°C° 0 mm 2 mps 735 mmHg 80%
    22:00 +13°C° 0 mm 2 mps 735 mmHg 80%
    23:00 +13°C° 0 mm 2 mps 735 mmHg 80%

    Day after tomorrow, 2 June, Tuesday

    Time Temperature Precipitation Wind Pressure Humidity
    00:00 +12°C° 0 mm 2 mps 735 mmHg 80%
    01:00 +11°C° 0 mm 3 mps 734 mmHg 81%
    02:00 +11°C° 0 mm 3 mps 734 mmHg 81%
    03:00 +11°C° 0 mm 3 mps 734 mmHg 81%
    04:00 +10°C° 0 mm 3 mps 734 mmHg 82%
    05:00 +12°C° 0 mm 3 mps 734 mmHg 76%
    06:00 +14°C° 0 mm 3 mps 735 mmHg 70%
    07:00 +16°C° 0 mm 3 mps 735 mmHg 63%
    08:00 +18°C° 0 mm 3 mps 735 mmHg 58%
    09:00 +19°C° 0 mm 3 mps 735 mmHg 52%
    10:00 +20°C° 0 mm 3 mps 735 mmHg 46%
    11:00 +21°C° 0 mm 3 mps 735 mmHg 45%
    12:00 +21°C° 0 mm 3 mps 734 mmHg 45%
    13:00 +22°C° 0 mm 3 mps 734 mmHg 45%
    14:00 +21°C° 0 mm 4 mps 734 mmHg 47%
    15:00 +21°C° 0 mm 4 mps 734 mmHg 50%
    16:00 +21°C° 0 mm 4 mps 734 mmHg 52%
    17:00 +19°C° 0 mm 4 mps 734 mmHg 59%
    18:00 +17°C° 0 mm 3 mps 733 mmHg 67%
    19:00 +16°C° 0 mm 3 mps 733 mmHg 74%
    20:00 +15°C° 0 mm 2 mps 734 mmHg 74%
    21:00 +14°C° 0 mm 2 mps 734 mmHg 73%
    22:00 +13°C° 0 mm 2 mps 734 mmHg 73%
    23:00 +13°C° 0 mm 2 mps 734 mmHg 73%

    3 June, Wednesday

    Time Temperature Precipitation Wind Pressure Humidity
    00:00 +12°C° 0 mm 2 mps 734 mmHg 73%
    01:00 +12°C° 0 mm 2 mps 733 mmHg 73%
    02:00 +12°C° 0 mm 2 mps 733 mmHg 73%
    03:00 +10°C° 0 mm 2 mps 733 mmHg 73%
    04:00 +10°C° 0 mm 2 mps 733 mmHg 73%
    05:00 +13°C° 0 mm 2 mps 733 mmHg 69%
    06:00 +15°C° 0 mm 2 mps 733 mmHg 66%
    07:00 +18°C° 0 mm 1 mps 733 mmHg 62%
    08:00 +19°C° 0 mm 1 mps 733 mmHg 60%
    09:00 +20°C° 0 mm 2 mps 733 mmHg 57%
    10:00 +21°C° 0 mm 2 mps 733 mmHg 55%
    11:00 +21°C° 0.1 mm 2 mps 733 mmHg 56%
    12:00 +21°C° 0.1 mm 3 mps 733 mmHg 57%
    13:00 +22°C° 0.1 mm 4 mps 733 mmHg 58%
    14:00 +21°C° 0.1 mm 3 mps 732 mmHg 61%
    15:00 +21°C° 0.1 mm 3 mps 732 mmHg 63%
    16:00 +20°C° 0.1 mm 3 mps 732 mmHg 65%
    17:00 +19°C° 0 mm 2 mps 733 mmHg 71%
    18:00 +18°C° 0 mm 2 mps 733 mmHg 77%
    19:00 +16°C° 0 mm 1 mps 733 mmHg 83%
    20:00 +16°C° 0 mm 1 mps 733 mmHg 83%
    21:00 +16°C° 0 mm 1 mps 734 mmHg 84%
    22:00 +15°C° 0 mm 1 mps 734 mmHg 85%
    23:00 +15°C° 0.2 mm 1 mps 734 mmHg 84%

    4 June, Thursday

    Time Temperature Precipitation Wind Pressure Humidity
    00:00 +15°C° 0.2 mm 2 mps 734 mmHg 83%
    01:00 +15°C° 0.2 mm 2 mps 734 mmHg 82%
    02:00 +15°C° 1.7 mm 2 mps 734 mmHg 86%
    03:00 +15°C° 1.7 mm 2 mps 734 mmHg 90%
    04:00 +14°C° 1.7 mm 1 mps 734 mmHg 95%
    05:00 +14°C° 1.5 mm 1 mps 734 mmHg 94%
    06:00 +15°C° 1.5 mm 2 mps 734 mmHg 94%
    07:00 +15°C° 1.5 mm 2 mps 734 mmHg 94%
    08:00 +15°C° 0.4 mm 2 mps 734 mmHg 93%
    09:00 +16°C° 0.4 mm 1 mps 735 mmHg 91%
    10:00 +16°C° 0.4 mm 1 mps 735 mmHg 90%
    11:00 +18°C° 0 mm 1 mps 735 mmHg 84%
    12:00 +20°C° 0 mm 1 mps 735 mmHg 78%
    13:00 +21°C° 0 mm 1 mps 735 mmHg 72%
    14:00 +21°C° 0 mm 1 mps 735 mmHg 71%
    15:00 +22°C° 0 mm 1 mps 735 mmHg 69%
    16:00 +22°C° 0 mm 1 mps 735 mmHg 68%
    17:00 +21°C° 0 mm 1 mps 735 mmHg 74%
    18:00 +19°C° 0 mm 1 mps 735 mmHg 80%
    19:00 +16°C° 0 mm 0 mps 735 mmHg 87%
    20:00 +16°C° 0 mm 1 mps 736 mmHg 88%
    21:00 +16°C° 0 mm 1 mps 736 mmHg 89%
    22:00 +15°C° 0 mm 1 mps 736 mmHg 90%
    23:00 +15°C° 0 mm 1 mps 736 mmHg 89%

    5 June, Friday

    Time Temperature Precipitation Wind Pressure Humidity
    00:00 +15°C° 0 mm 1 mps 736 mmHg 89%
    01:00 +15°C° 0 mm 1 mps 736 mmHg 88%
    02:00 +15°C° 0 mm 1 mps 736 mmHg 88%
    03:00 +15°C° 0 mm 1 mps 736 mmHg 87%
    04:00 +15°C° 0 mm 1 mps 736 mmHg 87%
    05:00 +18°C° 0 mm 1 mps 736 mmHg 81%
    06:00 +19°C° 0 mm 1 mps 736 mmHg 76%
    07:00 +21°C° 0 mm 1 mps 737 mmHg 70%
    08:00 +23°C° 0 mm 1 mps 737 mmHg 66%
    09:00 +24°C° 0 mm 1 mps 737 mmHg 61%
    10:00 +26°C° 0 mm 1 mps 737 mmHg 57%
    11:00 +26°C° 0 mm 2 mps 737 mmHg 56%
    12:00 +26°C° 0 mm 2 mps 736 mmHg 55%
    13:00 +26°C° 0 mm 3 mps 736 mmHg 55%
    14:00 +26°C° 0 mm 2 mps 736 mmHg 57%
    15:00 +26°C° 0 mm 2 mps 736 mmHg 58%
    16:00 +25°C° 0 mm 2 mps 736 mmHg 60%
    17:00 +24°C° 0 mm 2 mps 736 mmHg 68%
    18:00 +22°C° 0 mm 1 mps 736 mmHg 76%
    19:00 +20°C° 0 mm 1 mps 736 mmHg 83%
    20:00 +20°C° 0 mm 1 mps 736 mmHg 83%
    21:00 +19°C° 0 mm 1 mps 736 mmHg 82%
    22:00 +19°C° 0 mm 1 mps 737 mmHg 81%
    23:00 +19°C° 0 mm 1 mps 737 mmHg 78%
    Show more